Terminal Aerodrome Forecast
Issued by NWS

Home | Current Version | Previous Version | Text Only | Print | Product List | Glossary On
Versions: 1 2 3 4 5 6 7 8 9 10 11 12 13 14 15 16 17 18
000
FTAK31 PAFA 290529
TAFATA
TAF
PATA 290529Z 2906/3006 06003KT P6SM FEW090
     FM292200 09015G23KT P6SM FEW250=

USA.gov is the U.S. government's official web portal to all federal, state and local government web resources and services.